EN

Hourly Weather Lugano

Today, 1 December, Tuesday

Time Temperature Precipitation Wind Pressure Humidity
00:00 +5°C° 0 mm 0 mps 739 mmHg 70%
01:00 +4°C° 0 mm 0 mps 739 mmHg 69%
02:00 +4°C° 0 mm 0 mps 738 mmHg 69%
03:00 +4°C° 0 mm 0 mps 738 mmHg 68%
04:00 +4°C° 0 mm 0 mps 737 mmHg 68%
05:00 +4°C° 0 mm 0 mps 737 mmHg 68%
06:00 +4°C° 0 mm 0 mps 737 mmHg 69%
07:00 +4°C° 0 mm 0 mps 736 mmHg 69%
08:00 +4°C° 0 mm 0 mps 736 mmHg 67%
09:00 +5°C° 0 mm 0 mps 735 mmHg 66%
10:00 +6°C° 0 mm 0 mps 735 mmHg 65%
11:00 +7°C° 0 mm 1 mps 735 mmHg 65%
12:00 +7°C° 0 mm 1 mps 734 mmHg 65%
13:00 +7°C° 0 mm 1 mps 734 mmHg 65%
14:00 +7°C° 0.2 mm 1 mps 734 mmHg 70%
15:00 +6°C° 0.2 mm 0 mps 733 mmHg 74%
16:00 +5°C° 0.2 mm 0 mps 733 mmHg 79%
17:00 +5°C° 0.1 mm 0 mps 734 mmHg 81%
18:00 +6°C° 0.1 mm 1 mps 734 mmHg 83%
19:00 +5°C° 0.1 mm 1 mps 734 mmHg 84%
20:00 +5°C° 0 mm 1 mps 734 mmHg 84%
21:00 +5°C° 0 mm 1 mps 734 mmHg 84%
22:00 +4°C° 0 mm 1 mps 734 mmHg 83%
23:00 +5°C° 0 mm 1 mps 734 mmHg 80%

Tomorrow, 2 December, Wednesday

Time Temperature Precipitation Wind Pressure Humidity
00:00 +5°C° 0 mm 1 mps 734 mmHg 77%
01:00 +5°C° 0 mm 1 mps 734 mmHg 74%
02:00 +5°C° 0 mm 1 mps 734 mmHg 73%
03:00 +5°C° 0 mm 1 mps 734 mmHg 72%
04:00 +5°C° 0 mm 1 mps 733 mmHg 70%
05:00 +5°C° 0 mm 1 mps 733 mmHg 71%
06:00 +4°C° 0 mm 1 mps 733 mmHg 71%
07:00 +4°C° 0 mm 1 mps 732 mmHg 71%
08:00 +5°C° 0.1 mm 1 mps 732 mmHg 70%
09:00 +5°C° 0.1 mm 1 mps 732 mmHg 70%
10:00 +6°C° 0.1 mm 1 mps 732 mmHg 69%
11:00 +6°C° 0.1 mm 1 mps 731 mmHg 70%
12:00 +7°C° 0.1 mm 1 mps 731 mmHg 72%
13:00 +7°C° 0.1 mm 1 mps 731 mmHg 73%
14:00 +6°C° 0.2 mm 1 mps 731 mmHg 79%
15:00 +6°C° 0.2 mm 1 mps 731 mmHg 84%
16:00 +4°C° 0.2 mm 0 mps 731 mmHg 89%
17:00 +4°C° 0.1 mm 0 mps 731 mmHg 90%
18:00 +4°C° 0.1 mm 0 mps 731 mmHg 90%
19:00 +4°C° 0.1 mm 0 mps 732 mmHg 91%
20:00 +4°C° 0 mm 0 mps 732 mmHg 90%
21:00 +4°C° 0 mm 1 mps 732 mmHg 89%
22:00 +4°C° 0 mm 1 mps 732 mmHg 88%
23:00 +4°C° 0 mm 1 mps 731 mmHg 85%

Day after tomorrow, 3 December, Thursday

Time Temperature Precipitation Wind Pressure Humidity
00:00 +4°C° 0 mm 1 mps 731 mmHg 83%
01:00 +4°C° 0 mm 1 mps 730 mmHg 80%
02:00 +3°C° 0 mm 1 mps 730 mmHg 77%
03:00 +3°C° 0 mm 1 mps 730 mmHg 75%
04:00 +3°C° 0 mm 1 mps 729 mmHg 72%
05:00 +3°C° 0 mm 1 mps 729 mmHg 70%
06:00 +3°C° 0 mm 1 mps 729 mmHg 69%
07:00 +3°C° 0 mm 1 mps 729 mmHg 67%
08:00 +4°C° 0 mm 1 mps 729 mmHg 62%
09:00 +5°C° 0 mm 1 mps 729 mmHg 58%
10:00 +6°C° 0 mm 0 mps 729 mmHg 53%
11:00 +7°C° 0 mm 1 mps 728 mmHg 53%
12:00 +8°C° 0 mm 1 mps 728 mmHg 52%
13:00 +8°C° 0 mm 1 mps 727 mmHg 52%
14:00 +8°C° 0 mm 1 mps 727 mmHg 59%
15:00 +7°C° 0 mm 1 mps 727 mmHg 67%
16:00 +6°C° 0 mm 1 mps 726 mmHg 75%
17:00 +4°C° 0 mm 0 mps 726 mmHg 78%
18:00 +3°C° 0 mm 0 mps 727 mmHg 82%
19:00 +2°C° 0 mm 0 mps 727 mmHg 86%
20:00 +3°C° 0.1 mm 0 mps 726 mmHg 89%
21:00 +3°C° 0.1 mm 0 mps 726 mmHg 91%
22:00 +3°C° 0.1 mm 0 mps 726 mmHg 93%
23:00 +3°C° 0.3 mm 0 mps 725 mmHg 93%

4 December, Friday

Time Temperature Precipitation Wind Pressure Humidity
00:00 +3°C° 0.3 mm 0 mps 725 mmHg 94%
01:00 +3°C° 0.3 mm 0 mps 724 mmHg 94%
02:00 +4°C° 1 mm 1 mps 724 mmHg 95%
03:00 +4°C° 1 mm 1 mps 723 mmHg 95%
04:00 +4°C° 1 mm 1 mps 723 mmHg 96%
05:00 +4°C° 1.4 mm 1 mps 722 mmHg 96%
06:00 +4°C° 1.4 mm 1 mps 722 mmHg 97%
07:00 +4°C° 1.4 mm 1 mps 722 mmHg 97%
08:00 +4°C° 1.8 mm 1 mps 721 mmHg 97%
09:00 +4°C° 1.8 mm 1 mps 721 mmHg 97%
10:00 +4°C° 1.8 mm 1 mps 720 mmHg 97%
11:00 +4°C° 2.8 mm 1 mps 720 mmHg 97%
12:00 +4°C° 2.8 mm 1 mps 719 mmHg 97%
13:00 +5°C° 2.8 mm 1 mps 718 mmHg 97%
14:00 +5°C° 3.9 mm 1 mps 718 mmHg 98%
15:00 +4°C° 3.9 mm 1 mps 718 mmHg 98%
16:00 +4°C° 3.9 mm 1 mps 717 mmHg 98%
17:00 +4°C° 1.8 mm 1 mps 717 mmHg 98%
18:00 +5°C° 1.8 mm 1 mps 717 mmHg 98%
19:00 +5°C° 1.8 mm 1 mps 717 mmHg 98%
20:00 +5°C° 2.3 mm 1 mps 718 mmHg 99%
21:00 +5°C° 2.3 mm 1 mps 718 mmHg 99%
22:00 +5°C° 2.3 mm 1 mps 718 mmHg 99%
23:00 +5°C° 1.5 mm 1 mps 718 mmHg 99%

5 December, Saturday

Time Temperature Precipitation Wind Pressure Humidity
00:00 +5°C° 1.5 mm 1 mps 718 mmHg 99%
01:00 +5°C° 1.5 mm 1 mps 718 mmHg 99%
02:00 +6°C° 0.7 mm 1 mps 717 mmHg 99%
03:00 +6°C° 0.7 mm 1 mps 717 mmHg 99%
04:00 +6°C° 0.7 mm 1 mps 717 mmHg 98%
05:00 +6°C° 3.7 mm 1 mps 716 mmHg 98%
06:00 +5°C° 3.7 mm 1 mps 716 mmHg 99%
07:00 +5°C° 3.7 mm 1 mps 716 mmHg 99%
08:00 +5°C° 3.8 mm 1 mps 716 mmHg 98%
09:00 +5°C° 3.8 mm 1 mps 716 mmHg 98%
10:00 +5°C° 3.8 mm 1 mps 717 mmHg 98%
11:00 +5°C° 2.3 mm 1 mps 717 mmHg 98%
12:00 +5°C° 2.3 mm 1 mps 717 mmHg 98%
13:00 +5°C° 2.3 mm 1 mps 717 mmHg 98%
14:00 +5°C° 1.2 mm 1 mps 717 mmHg 97%
15:00 +5°C° 1.2 mm 1 mps 718 mmHg 97%
16:00 +4°C° 1.2 mm 0 mps 718 mmHg 97%
17:00 +4°C° 0.2 mm 0 mps 719 mmHg 97%
18:00 +4°C° 0.2 mm 1 mps 719 mmHg 96%
19:00 +4°C° 0.2 mm 1 mps 720 mmHg 96%
20:00 +4°C° 0.1 mm 1 mps 720 mmHg 96%
21:00 +3°C° 0.1 mm 0 mps 720 mmHg 95%
22:00 +3°C° 0.1 mm 0 mps 721 mmHg 95%
23:00 +4°C° 0.1 mm 1 mps 721 mmHg 95%

6 December, Sunday

Time Temperature Precipitation Wind Pressure Humidity
00:00 +3°C° 0.1 mm 1 mps 721 mmHg 95%
01:00 +3°C° 0.1 mm 1 mps 721 mmHg 95%
02:00 +3°C° 0 mm 1 mps 721 mmHg 93%
03:00 +2°C° 0 mm 1 mps 721 mmHg 92%
04:00 +2°C° 0 mm 1 mps 722 mmHg 91%
05:00 +2°C° 0 mm 1 mps 722 mmHg 90%
06:00 +1°C° 0 mm 1 mps 722 mmHg 90%
07:00 +1°C° 0 mm 1 mps 722 mmHg 89%
08:00 +2°C° 0.1 mm 1 mps 723 mmHg 90%
09:00 +3°C° 0.1 mm 1 mps 723 mmHg 90%
10:00 +3°C° 0.1 mm 1 mps 723 mmHg 91%
11:00 +4°C° 0.1 mm 1 mps 723 mmHg 92%
12:00 +4°C° 0.1 mm 1 mps 723 mmHg 93%
13:00 +4°C° 0.1 mm 0 mps 723 mmHg 94%
14:00 +5°C° 0.1 mm 1 mps 723 mmHg 95%
15:00 +4°C° 0.1 mm 1 mps 724 mmHg 95%
16:00 +4°C° 0.1 mm 1 mps 724 mmHg 96%
17:00 +4°C° 0.5 mm 1 mps 724 mmHg 96%
18:00 +4°C° 0.5 mm 1 mps 725 mmHg 97%
19:00 +4°C° 0.5 mm 1 mps 725 mmHg 97%
20:00 +4°C° 1 mm 1 mps 726 mmHg 97%
21:00 +4°C° 1 mm 1 mps 726 mmHg 97%
22:00 +3°C° 1 mm 1 mps 726 mmHg 97%
23:00 +3°C° 1.3 mm 1 mps 727 mmHg 97%
Show more